Weather History for Pine Ridge, SD

Change the Weather History Date:

Tuesday, December 11, 2012

  Actual Average Record
Temperature  
Mean Temperature 26 °F 23 °F  
Max Temperature 38 °F 36 °F 68 °F (2014)
Min Temperature 14 °F 10 °F -26 °F (2000)
Degree Days  
Heating Degree Days 39 42  
Month to date heating degree days 354 446  
Since 1 July heating degree days 1942 2136  
Cooling Degree Days 0 0  
Month to date cooling degree days 0 0  
Year to date cooling degree days 1103 717  
Moisture  
Dew Point 16 °F    
Average Humidity 66    
Maximum Humidity 84    
Minimum Humidity 48    
Precipitation  
Precipitation 0.01 in 0.01 in 0.03 in (2008)
Month to date precipitation 0.08 0.11  
Year to date precipitation 11.11 17.28  
Sea Level Pressure  
Sea Level Pressure 29.89 in    
Wind  
Wind Speed 9 mph (SW)    
Max Wind Speed 16 mph    
Max Gust Speed 22 mph    
Visibility 10 miles    
Events      
T = Trace of Precipitation, MM = Missing Value Source: NWS Daily Summary

Daily Weather History Graph

Daily Weather History Graph

Search for Another Location

Airport:

Trip Planner

Search our weather history database for the weather conditions in past years. The results will help you decide how hot, cold, wet, or windy it might be!

Date:

Astronomy

Dec. 11, 2012 Rise Set
Actual Time 7:11 AM MST 4:15 PM MST
Civil Twilight 6:39 AM MST 4:47 PM MST
Nautical Twilight 6:03 AM MST 5:23 PM MST
Astronomical Twilight 5:29 AM MST 5:57 PM MST
Moon 5:07 AM MST (12/11) 2:57 PM MST (12/11)
Length of Visible Light 10h 08m
Length of Day
9h 03m
Waning Crescent, 4% of the Moon is Illuminated
Dec 11
Waning Crescent
Dec 13
New
Dec 19
First Quarter
Dec 28
Full
Jan 4
Last Quarter

Hourly Weather History & Observations

Time (MST) Temp. Windchill Dew Point Humidity Pressure Visibility Wind Dir Wind Speed Gust Speed Precip Events Conditions
12:52 AM 21.9 °F 11.7 °F 18.0 °F 85% 30.00 in 10.0 mi SW 9.2 mph - N/A   Overcast
1:52 AM 24.1 °F 17.0 °F 18.0 °F 77% 29.99 in 9.0 mi WSW 5.8 mph - 0.00 in   Overcast
1:59 AM 21.2 °F 12.6 °F 17.6 °F 86% 29.90 in 10.0 mi West 6.9 mph - N/A   Mostly Cloudy
2:52 AM 19.0 °F 11.1 °F 14.0 °F 81% 30.00 in 10.0 mi SW 5.8 mph - N/A   Partly Cloudy
3:52 AM 18.0 °F 8.7 °F 12.9 °F 81% 30.00 in 10.0 mi WSW 6.9 mph - N/A   Partly Cloudy
4:52 AM 18.0 °F 6.9 °F 12.0 °F 78% 29.99 in 10.0 mi WSW 9.2 mph - N/A   Clear
5:52 AM 15.1 °F 4.2 °F 10.0 °F 80% 30.01 in 10.0 mi WSW 8.1 mph - N/A   Clear
6:52 AM 19.9 °F 7.3 °F 12.0 °F 71% 30.02 in 10.0 mi WSW 12.7 mph - N/A   Clear
7:52 AM 19.0 °F 11.1 °F 10.9 °F 71% 30.04 in 10.0 mi WSW 5.8 mph - N/A   Clear
8:52 AM 21.0 °F 11.4 °F 12.0 °F 68% 30.03 in 10.0 mi SW 8.1 mph - N/A   Clear
9:52 AM 26.1 °F 16.8 °F 15.1 °F 63% 30.01 in 10.0 mi SW 9.2 mph - N/A   Clear
10:52 AM 30.0 °F 22.4 °F 15.1 °F 54% 29.97 in 10.0 mi WSW 8.1 mph - 0.01 in   Clear
12:52 PM 34.0 °F 25.5 °F 17.1 °F 50% 29.87 in 10.0 mi WSW 11.5 mph - N/A   Clear
1:52 PM 37.0 °F 28.9 °F 19.0 °F 48% 29.82 in 10.0 mi SW 12.7 mph - N/A   Clear
2:52 PM 37.0 °F 30.4 °F 19.0 °F 48% 29.82 in 10.0 mi SW 9.2 mph - N/A   Clear
3:52 PM 30.9 °F 23.5 °F 18.0 °F 59% 29.83 in 10.0 mi SSW 8.1 mph - N/A   Clear
4:52 PM 30.0 °F 22.4 °F 17.1 °F 59% 29.82 in 10.0 mi South 8.1 mph - N/A   Clear
5:52 PM 28.9 °F 21.1 °F 18.0 °F 64% 29.82 in 10.0 mi SW 8.1 mph - N/A   Clear
6:52 PM 30.0 °F 21.7 °F 16.0 °F 56% 29.78 in 10.0 mi SSW 9.2 mph - N/A   Clear
7:52 PM 32.0 °F 22.1 °F 17.1 °F 54% 29.76 in 10.0 mi South 13.8 mph - N/A   Clear
8:52 PM 33.1 °F 24.4 °F 19.0 °F 56% 29.75 in 10.0 mi SSW 11.5 mph - N/A   Clear
9:52 PM 30.0 °F 24.1 °F 19.0 °F 64% 29.75 in 10.0 mi West 5.8 mph - N/A   Clear
10:52 PM 28.9 °F 21.1 °F 19.0 °F 67% 29.75 in 10.0 mi SSW 8.1 mph - N/A   Clear
11:52 PM 27.0 °F 18.7 °F 19.0 °F 72% 29.74 in 10.0 mi SW 8.1 mph - N/A   Clear